Tracking 30102 objects as of 12-Dec-2024
HD Live streaming from Space Station
objects crossing your sky now

OPS 7898 (P/L 4)

Track OPS 7898 (P/L 4) now!
10-day predictions
OPS 7898 (P/L 4) is classified as:


NORAD ID: 5682
Int'l Code: 1971-110E
Perigee: 985.3 km
Apogee: 995.3 km
Inclination: 70.0 °
Period: 104.8 minutes
Semi major axis: 7361 km
RCS: Unknown
Launch date: December 14, 1971
Source: United States (US)
Launch site: AIR FORCE WESTERN TEST RANGE (AFWTR)
Your satellite tracking list
Your tracking list is empty




NASA's NSSDC Master Catalog

Two Line Element Set (TLE):
1 05682U 71110E   24347.50836725  .00000021  00000-0  74886-4 0  9997
2 05682  69.9904  64.4524 0006775 163.2865 196.8454 13.74585335269368
Source of the keplerian elements: McCants